Ravenna, OH

5:11 PM EDT on July 26, 2017 (GMT -0400)
Ravenna

Weather History for KPOV - August, 2014

Change the Weather History Date:

Sunday, August 10, 2014

  Actual Average (KCAK) Record (KCAK)
Temperature  
Mean Temperature 71 °F -  
Max Temperature 83 °F 81 °F 96 °F (1911)
Min Temperature 59 °F 61 °F 47 °F (1972)
Cooling Degree Days 6    
Growing Degree Days 21 (Base 50)    
Moisture  
Dew Point 63 °F    
Average Humidity 66    
Maximum Humidity 100    
Minimum Humidity 44    
Precipitation  
Precipitation 0.00 in - - ()
Sea Level Pressure  
Sea Level Pressure 30.09 in    
Wind  
Wind Speed 6 mph (East)    
Max Wind Speed 10 mph    
Max Gust Speed -    
Visibility 7 miles    
Events      
Averages and records for this station are not official NWS values.
T = Trace of Precipitation, MM = Missing Value Source: NWS Daily Summary

Daily Weather History Graph

Daily Weather History Graph

Search for Another Location

Airport or City:

Trip Planner

Search our weather history database for the weather conditions in past years. The results will help you decide how hot, cold, wet, or windy it might be!

Date:

Astronomy

Aug. 10, 2014 Rise Set
Actual Time 6:29 AM EDT 8:30 PM EDT
Civil Twilight 5:59 AM EDT 9:00 PM EDT
Nautical Twilight 5:22 AM EDT 9:37 PM EDT
Astronomical Twilight 4:42 AM EDT 10:17 PM EDT
Moon 8:15 PM EDT (8/10) 6:20 AM EDT (8/10)
Length of Visible Light 15h 01m
Length of Day
14h 01m
Full, 100% of the Moon is Illuminated
Aug 10
Full
Aug 10
Full
Aug 17
Last Quarter
Aug 25
New
Sep 2
First Quarter

Hourly Weather History & Observations

Time (EDT) Temp. Heat Index Dew Point Humidity Pressure Visibility Wind Dir Wind Speed Gust Speed Precip Events Conditions
12:18 AM 62.8 °F - 63.0 °F 100% 30.12 in 10.0 mi ENE 5.8 mph - N/A   Clear
12:37 AM 62.6 °F - 62.8 °F 100% 30.11 in 10.0 mi ENE 5.8 mph - N/A   Clear
12:58 AM 62.2 °F - - N/A% 30.11 in 10.0 mi ENE 5.8 mph - N/A   Clear
1:18 AM 62.2 °F - - N/A% 30.11 in 10.0 mi ENE 5.8 mph - N/A   Clear
1:37 AM 62.1 °F - - N/A% 30.11 in 10.0 mi East 4.6 mph - N/A   Clear
1:58 AM 61.7 °F - - N/A% 30.11 in 10.0 mi ENE 5.8 mph - N/A   Clear
2:18 AM 61.3 °F - - N/A% 30.11 in 10.0 mi ENE 5.8 mph - N/A   Clear
2:38 AM 60.8 °F - - N/A% 30.10 in 10.0 mi ENE 5.8 mph - N/A   Clear
2:58 AM 60.8 °F - - N/A% 30.10 in 10.0 mi ENE 5.8 mph - N/A   Clear
3:18 AM 61.0 °F - - N/A% 30.10 in 7.0 mi East 4.6 mph - N/A   Clear
3:38 AM 60.8 °F - - N/A% 30.10 in 7.0 mi East 5.8 mph - N/A   Clear
3:57 AM 61.2 °F - - N/A% 30.10 in 7.0 mi ENE 5.8 mph - N/A   Clear
4:18 AM 60.8 °F - - N/A% 30.10 in 7.0 mi East 4.6 mph - N/A   Clear
4:38 AM 60.8 °F - - N/A% 30.10 in 7.0 mi East 5.8 mph - N/A   Clear
5:18 AM 60.4 °F - - N/A% 30.10 in 7.0 mi East 5.8 mph - N/A   Clear
5:37 AM 60.4 °F - - N/A% 30.10 in 5.0 mi East 4.6 mph - N/A   Clear
5:58 AM 60.1 °F - - N/A% 30.10 in 5.0 mi East 4.6 mph - N/A   Clear
6:18 AM 60.4 °F - - N/A% 30.11 in 5.0 mi East 3.5 mph - N/A   Clear
6:37 AM 60.1 °F - - N/A% 30.10 in 4.0 mi East 3.5 mph - N/A   Clear
6:58 AM 59.9 °F - - N/A% 30.11 in 2.5 mi East 4.6 mph - N/A   Clear
7:18 AM 61.3 °F - - N/A% 30.11 in 3.0 mi East 4.6 mph - N/A   Clear
7:38 AM 62.6 °F - - N/A% 30.12 in 4.0 mi East 4.6 mph - N/A   Clear
7:57 AM 63.5 °F - - N/A% 30.12 in 5.0 mi East 6.9 mph - N/A   Clear
8:18 AM 64.6 °F - - N/A% 30.12 in 5.0 mi East 5.8 mph - N/A   Clear
8:38 AM 65.7 °F - - N/A% 30.12 in 5.0 mi Calm Calm - N/A   Clear
8:57 AM 65.8 °F - - N/A% 30.12 in 5.0 mi ESE 5.8 mph - N/A   Clear
9:18 AM 68.2 °F - - N/A% 30.12 in 7.0 mi East 6.9 mph - N/A   Clear
9:37 AM 69.3 °F - - N/A% 30.12 in 7.0 mi East 5.8 mph - N/A   Clear
9:58 AM 71.4 °F - 65.7 °F 82% 30.11 in 7.0 mi ESE 5.8 mph - N/A   Clear
10:18 AM 73.2 °F - 63.3 °F 71% 30.12 in 10.0 mi ESE 6.9 mph - N/A   Clear
10:37 AM 74.3 °F - 63.3 °F 68% 30.12 in 10.0 mi ESE 6.9 mph - N/A   Clear
10:58 AM 75.2 °F - 63.9 °F 68% 30.12 in 10.0 mi ESE 5.8 mph - N/A   Clear
11:18 AM 75.6 °F - 63.9 °F 67% 30.12 in 7.0 mi SE 5.8 mph - N/A   Clear
11:38 AM 75.4 °F - 64.0 °F 68% 30.12 in 7.0 mi ESE 4.6 mph - N/A   Clear
11:57 AM 77.7 °F - 63.5 °F 61% 30.12 in 5.0 mi ESE 5.8 mph - N/A   Clear
12:18 PM 78.3 °F - 63.9 °F 61% 30.12 in 5.0 mi East 4.6 mph - N/A   Clear
12:38 PM 79.2 °F - 64.0 °F 60% 30.11 in 7.0 mi East 9.2 mph - N/A   Clear
12:57 PM 79.9 °F - 63.7 °F 58% 30.11 in 7.0 mi East 6.9 mph - N/A   Clear
1:18 PM 80.4 °F 81.6 °F 62.2 °F 54% 30.10 in 7.0 mi ESE 5.8 mph - N/A   Clear
1:37 PM 81.0 °F 82.1 °F 62.6 °F 53% 30.10 in 5.0 mi East 10.4 mph - N/A   Clear
1:58 PM 81.0 °F 81.8 °F 61.3 °F 51% 30.10 in 7.0 mi ESE 9.2 mph - N/A   Clear
2:18 PM 81.5 °F 82.2 °F 61.2 °F 50% 30.10 in 7.0 mi SE 6.9 mph - N/A   Clear
2:38 PM 82.0 °F 82.8 °F 61.5 °F 50% 30.09 in 7.0 mi East 9.2 mph - N/A   Clear
2:57 PM 81.7 °F 82.2 °F 60.1 °F 48% 30.09 in 7.0 mi ESE 9.2 mph - N/A   Clear
3:18 PM 82.9 °F 83.2 °F 60.1 °F 46% 30.08 in 7.0 mi ESE 8.1 mph - N/A   Clear
3:37 PM 82.8 °F 82.8 °F 59.4 °F 45% 30.07 in 5.0 mi East 6.9 mph - N/A   Clear
3:58 PM 83.3 °F 83.5 °F 60.4 °F 46% 30.07 in 7.0 mi East 8.1 mph - N/A   Clear
4:18 PM 83.3 °F 83.7 °F 61.2 °F 47% 30.07 in 7.0 mi ESE 6.9 mph - N/A   Clear
4:37 PM 82.2 °F 82.1 °F 58.5 °F 44% 30.07 in 7.0 mi ESE 6.9 mph - N/A   Clear
4:58 PM 82.2 °F 82.4 °F 59.4 °F 46% 30.07 in 7.0 mi ESE 6.9 mph - N/A   Clear
5:18 PM 82.6 °F 83.1 °F 60.8 °F 48% 30.06 in 7.0 mi SE 5.8 mph - N/A   Clear
5:37 PM 82.0 °F 82.1 °F 58.8 °F 45% 30.05 in 7.0 mi East 8.1 mph - N/A   Clear
5:58 PM 81.5 °F 81.8 °F 59.4 °F 47% 30.05 in 7.0 mi ESE 6.9 mph - N/A   Clear
6:18 PM 81.1 °F 81.6 °F 59.7 °F 48% 30.05 in 7.0 mi ESE 4.6 mph - N/A   Clear
6:38 PM 80.6 °F 81.2 °F 59.7 °F 49% 30.04 in 7.0 mi ESE 4.6 mph - N/A   Clear
6:58 PM 80.1 °F 81.0 °F 60.3 °F 51% 30.04 in 7.0 mi ESE 4.6 mph - N/A   Scattered Clouds
7:18 PM 79.5 °F - 61.5 °F 54% 30.04 in 7.0 mi East 4.6 mph - N/A   Mostly Cloudy
7:38 PM 77.2 °F - 62.4 °F 60% 30.04 in 7.0 mi East 4.6 mph - N/A   Scattered Clouds
7:57 PM 75.9 °F - 63.0 °F 64% 30.03 in 7.0 mi East 3.5 mph - N/A   Scattered Clouds
8:18 PM 73.8 °F - 63.5 °F 70% 30.03 in 7.0 mi East 3.5 mph - N/A   Clear
8:38 PM 71.4 °F - 64.2 °F 78% 30.03 in 7.0 mi East 3.5 mph - N/A   Clear
8:58 PM 70.5 °F - 64.6 °F 81% 30.03 in 7.0 mi ENE 3.5 mph - N/A   Clear
9:18 PM 69.1 °F - 65.1 °F 87% 30.04 in 7.0 mi ENE 4.6 mph - N/A   Clear
9:38 PM 68.2 °F - 67.5 °F 98% 30.04 in 7.0 mi ENE 5.8 mph - N/A   Clear
9:58 PM 67.5 °F - 67.5 °F 100% 30.04 in 7.0 mi East 4.6 mph - N/A   Clear
10:18 PM 68.5 °F - 65.1 °F 89% 30.04 in 7.0 mi East 4.6 mph - N/A   Clear
10:38 PM 68.2 °F - 64.4 °F 88% 30.04 in 5.0 mi ENE 4.6 mph - N/A   Clear
10:57 PM 67.1 °F - 65.5 °F 95% 30.04 in 7.0 mi ENE 4.6 mph - N/A   Clear
11:18 PM 66.4 °F - 66.2 °F 99% 30.03 in 7.0 mi East 4.6 mph - N/A   Clear
11:38 PM 66.9 °F - 65.1 °F 94% 30.04 in 7.0 mi East 4.6 mph - N/A   Clear
11:57 PM 67.3 °F - 66.0 °F 96% 30.04 in 7.0 mi East 4.6 mph - N/A   Mostly Cloudy